Weather Roundup
Issued by NWS Springfield, MO

Home | Current Version | Previous Version | Text Only | Print | Product List | Glossary On
Versions: 1 2 3 4 5 6 7 8 9 10 11 12 13 14 15 16 17 18 19 20 21 22 23 24 25 26 27 28 29 30 31 32 33 34 35 36 37 38 39 40 41 42 43 44 45 46 47 48 49 50
148
NZUS99 KSGF 240607
HRRSGF

HOURLY WEATHER
NATIONAL WEATHER SERVICE SPRINGFIELD MO
1200 AM CST SAT FEB 24 2018

......SGF CWA......

CITY           SKY/WX    TMP DP  RH WIND       PRES   REMARKS
SPRINGFIELD    RAIN      51  50  96 SE15      30.00F FOG
6HR MIN TEMP:  45; 6HR MAX TEMP:  51; 6HR PCP:  1.02;

JOPLIN         HVY RAIN  40  40 100 N6        30.02F FOG
6HR MIN TEMP:  40; 6HR MAX TEMP:  42; 6HR PCP:  1.06;

WEST PLAINS    LGT RAIN  48  47  96 E10       30.07F
6HR MIN TEMP:  47; 6HR MAX TEMP:  48; 6HR PCP:  0.11;

ROLLA          RAIN      40  40 100 E12       30.12F FOG     WCI  33
6HR MIN TEMP:  39; 6HR MAX TEMP:  42; 6HR PCP:  0.34;

OSAGE BEACH    RAIN      39  39 100 NE13      30.04F WCI  31

......SURROUNDING SGF CWA......

CITY           SKY/WX    TMP DP  RH WIND       PRES   REMARKS
CHANUTE        MIX PCPN  37  35  92 NE10      30.03F FOG     WCI  30
PARSONS        CLOUDY    39  38  96 NE7       30.03F WCI  34
COFFEYVILLE    CLOUDY    40  39  97 NE10      30.02F WCI  33
EMPORIA        MIX PCPN  31  30  96 NE10      30.06F FOG     WCI  22
GROVE OK       RAIN      52  52 100 E3        29.99F
ROGERS AR      RAIN      50  49  96 E18G24    29.95F
SILOAM SPRINGS HVY RAIN  51  50  96 SW5       30.00R FOG
HARRISON AR    LGT RAIN  46  46 100 E10       30.05S VSB 1/4
NEAR YELLVILLE LGT RAIN  48  48 100 E7        30.08F FOG

......KANSAS AND MISSOURI......

CITY           SKY/WX    TMP DP  RH WIND       PRES   REMARKS
KANSAS CTY INT DRIZZLE   33  31  92 NE12      30.13F FOG     WCI  24
DOWNTOWN KC    LGT RAIN  36  31  82 NE9       30.13F WCI  29
COLUMBIA       LGT RAIN  37  36  96 E12       30.13F WCI  29
SEDALIA        LGT SNOW  36  36 100 NE10      30.13F FOG     WCI  28
ST JOSEPH      CLOUDY    33  31  92 N8        30.17F WCI  26
ST LOUIS       RAIN      40  39  97 NE8       30.19F FOG     WCI  34
SPIRIT OF STL  LGT RAIN  40  39  97 NE9       30.17F FOG     WCI  34
KIRKSVILLE     CLOUDY    34  32  92 NE7       30.21S WCI  28
WICHITA        DRIZZLE   33  33 100 NE9       30.04F FOG     WCI  25
TOPEKA         LGT RAIN  34  32  92 NE9       30.12F WCI  27
OLATHE         CLOUDY    32  32 100 NE13      30.10F WCI  22

......TENNESSEE......

CITY           SKY/WX    TMP DP  RH WIND       PRES   REMARKS
MEMPHIS        CLOUDY    59  58  96 E8        30.10F
NASHVILLE      CLOUDY    61  57  87 N7        30.17F

......ARKANSAS.......

CITY           SKY/WX    TMP DP  RH WIND       PRES   REMARKS
FAYETTEVILLE   LGT RAIN  51  51 100 E6        29.96F
FT SMITH       CLOUDY    55  54  96 E7        29.98F
LITTLE ROCK    CLOUDY    52  52 100 E6        30.07F

......OKLAHOMA.......

CITY           SKY/WX    TMP DP  RH WIND       PRES   REMARKS
TULSA          DRIZZLE   42  41  96 N6        30.00F
PONCA CITY     CLOUDY    36  34  92 NE8       30.03F FOG     WCI  30
MCALESTER      LGT RAIN  47  47 100 CALM      30.00S FOG
OKLAHOMA CITY  FOG       38  38 100 N6        30.00F VSB 1/2 WCI  33

......IOWA............

CITY           SKY/WX    TMP DP  RH WIND       PRES   REMARKS
DES MOINES     CLOUDY    26  21  81 NE8       30.27F WCI  18
QUAD CITIES    FAIR      30  26  85 N3        30.26F

......ILLINOIS........

CITY           SKY/WX    TMP DP  RH WIND       PRES   REMARKS
QUINCY         MOCLDY    34  32  92 NE6       30.19F WCI  29
CHICAGO        CLOUDY    33  28  81 NW7       30.26S WCI  27




USA.gov is the U.S. government's official web portal to all federal, state and local government web resources and services.